Guiyang Longdongbao International

Airport
ICAO code: 
ZUGY
IATA Code: 
KWE
Summary
ICAO Region: 
APAC
Territory: 
Location: 
Guiyang, Guizhou,
Serving: 
Guiyang
Coordinates: 
Aerial View: 
26° 32' 26.491" N, 106° 48' 0.752" E
Metar
Observation
ZUGY 240700Z 01004MPS 9999 SCT010 BKN015 OVC030 05/02 Q1015 NOSIG
Station
Guiyang
Date/Time
2022-01-24 07:00:00
Wind direction
10°
Lowest cloud amount
scattered clouds
Temperature
5°C
Dew point
2°C
Humidity
80%
QNH
1015 hPa
Weather condition
n/a

Description

Guiyang Longdongbao International Airport is an airport in Guiyang, Guizhou, China..

Climatology

Within the Köppen Climate Classification System, ((Koppen climate classification Cwa)) this climate type generally has warm and humid summers with mild winters. Its extent is from 30 to 50° of latitude mainly on the eastern and western borders of most continents. During the winter, the main weather feature is the mid-latitude cyclone. Convective thunderstorms provide precipitation in the summer months.

Runways

Designator Length Width Surface Rops
1/19 3200 60 CON Yes/Yes
Airport map: 
Aerial View: 

SKYbrary Partners:

Safety knowledge contributed by: